Location: Briis
(48.6240°N, 2.1211°E)
Time: 19:02:50
(UTC+00:00)

ERBS - Pass Details

Date: 25 September 2020
Orbit: 413 x 419 km, 57.0° (Epoch: 22 October)

Event Time Altitude Azimuth Distance (km) Brightness Sun altitude
Exits shadow 04:44:20 11° 296° (WNW) 1,445 4.5 -10.4°
Maximum altitude 04:46:51 22° 348° (NNW) 969 4.1 -10.0°
Drops below altitude 10° 04:49:36 10° 42° (NE) 1,511 5.9 -9.6°
Sets 04:52:00 0° 58° (ENE) 2,377 7.5 -9.2°
